User: anonymous   Login
Location: Unspecified
(0.0000°N, 0.0000°E)
Time: 08:45:38
(UTC+01:00)
Language:

ARIANE 5 R/B - Orbit

View from above orbital plane
View from above orbital plane
View from above satellite
View from above satellite

Ground track
Ground track

The orbit data is extracted from the following two-line orbital elements,

1 27387U 02009B   14302.92766837  .00000176  00000-0  74699-4 0  3094
2 27387 098.3320 261.0236 0033631 125.7124 287.2271 14.35753126663609
Epoch (UTC): 29 October 2014 22:15:50
Eccentricity: 0.0033631
inclination: 98.3320°
perigee height: 748 km
apogee height: 796 km
right ascension of ascending node: 261.0236°
argument of perigee: 125.7124°
revolutions per day: 14.35753126
mean anomaly at epoch: 287.2271°
orbit number at epoch: 66360

The dashed part of the orbit path shows where the satellite is in the earth's shadow,  

DLR